Durango, Mexico

3:50 AM CDT on May 27, 2018 (GMT -0500)
Durango

Weather History for MMDO - September, 2012

Change the Weather History Date:

Saturday, September 22, 2012

  Actual Average Record
Temperature  
Mean Temperature 61 °F -  
Max Temperature 83 °F 77 °F 86 °F (1998)
Min Temperature 39 °F 49 °F 39 °F (2012)
Degree Days  
Heating Degree Days 4    
Growing Degree Days 11 (Base 50)    
Moisture  
Dew Point 38 °F    
Average Humidity 42    
Maximum Humidity 87    
Minimum Humidity 17    
Precipitation  
Precipitation 0.00 in - - ()
Sea Level Pressure  
Sea Level Pressure 30.08 in    
Wind  
Wind Speed 2 mph ()    
Max Wind Speed 13 mph    
Max Gust Speed -    
Visibility 12.6 miles    
Events      
Averages and records for this station are not official NWS values.
T = Trace of Precipitation, MM = Missing Value Source: Averaged Metar Reports

Daily Weather History Graph

Daily Weather History Graph

Search for Another Location

Airport or City:

Astronomy

Sep. 22, 2012 Rise Set
Actual Time 7:46 AM CDT 7:53 PM CDT
Civil Twilight 7:24 AM CDT 8:16 PM CDT
Nautical Twilight 6:57 AM CDT 8:42 PM CDT
Astronomical Twilight 6:31 AM CDT 9:09 PM CDT
Moon 2:29 PM CDT (9/22) 12:37 AM CDT (9/22)
Length of Visible Light 12h 52m
Length of Day
12h 06m
Waxing Crescent, 49% of the Moon is Illuminated
Sep 22
Waxing Crescent
Sep 22
First Quarter
Sep 29
Full
Oct 8
Last Quarter
Oct 15
New

Hourly Weather History & Observations

Time (CDT) Temp. Dew Point Humidity Pressure Visibility Wind Dir Wind Speed Gust Speed Precip Events Conditions
12:45 AM 58 °F 40 °F 39% 29.79 in 6 mi Calm Calm - -  
3:55 AM 52 °F 41 °F 57% 29.88 in 6 mi Calm Calm - -  
6:00 AM 42.8 °F 35.6 °F 76% 30.24 in 7.0 mi Calm Calm - N/A   Clear
6:40 AM 49 °F 41 °F 65% 29.97 in 9 mi Calm Calm - -  
6:40 AM 41.0 °F 35.6 °F 81% 29.94 in 7.0 mi Calm Calm - N/A   Clear
7:40 AM 39.2 °F 35.6 °F 87% 30.28 in 14.0 mi Calm Calm - N/A   Clear
8:41 AM 44.6 °F 41.0 °F 87% 30.29 in 14.0 mi Calm Calm - N/A   Clear
9:42 AM 55.4 °F 41.0 °F 58% 29.98 in 14.0 mi Calm Calm - N/A   Clear
10:49 AM 64.4 °F 39.2 °F 40% 30.31 in 14.0 mi Calm Calm - N/A   Clear
11:42 AM 68.0 °F 37.4 °F 33% 30.30 in 14.0 mi North - - N/A   Clear
12:43 PM 69.8 °F 35.6 °F 28% 29.91 in 14.0 mi North 6.9 mph - N/A   Clear
12:55 PM 72 °F 45 °F 27% 30.02 in 19 mi East 2.2 mph - -  
1:46 PM 71.6 °F 35.6 °F 27% 30.26 in 14.0 mi NW 4.6 mph - N/A   Clear
2:42 PM 73.4 °F 33.8 °F 23% 30.24 in 14.0 mi North 4.6 mph - N/A   Clear
3:35 PM 77 °F 44 °F 20% 29.90 in 19 mi NNE 2.2 mph - -   Scattered Clouds
3:41 PM 73.4 °F 35.6 °F 25% 29.90 in 14.0 mi SSW 5.8 mph - N/A   Clear
4:41 PM 77.0 °F 33.8 °F 21% 30.21 in 14.0 mi NNW 5.8 mph - N/A   Clear
5:43 PM 77.0 °F 28.4 °F 17% 30.19 in 14.0 mi NNE 6.9 mph - N/A   Clear
6:44 PM 75.2 °F 33.8 °F 22% 29.93 in 14.0 mi North 12.7 mph - N/A   Clear
6:55 PM 78 °F 42 °F 17% 29.79 in 25 mi NE 4.5 mph - -   Scattered Clouds
7:40 PM 71.6 °F 33.8 °F 25% 30.22 in 14.0 mi North 6.9 mph - N/A   Clear
8:50 PM 62.6 °F 39.2 °F 42% 30.24 in 14.0 mi North 6.9 mph - N/A   Clear
9:46 PM 60.8 °F 39.2 °F 45% 30.26 in 14.0 mi North 6.9 mph - N/A   Clear
9:55 PM 67 °F 41 °F 28% 29.79 in 6 mi NE 4.5 mph - -   Partly Cloudy
10:51 PM 55.4 °F 41.0 °F 58% 30.28 in 14.0 mi North 6.9 mph - N/A   Clear